Regional Weather Roundup
Issued by NWS San Angelo, TX

Home | Current Version | Previous Version | Text Only | Print | Product List | Glossary On
Versions: 1 2 3 4 5 6 7 8 9 10 11 12 13 14 15 16 17 18 19 20 21 22 23 24 25 26 27 28 29 30 31 32 33 34 35 36 37 38 39 40 41 42 43 44 45 46 47 48 49 50
000
ASUS44 KSJT 240710
RWRSJT
WEST CENTRAL TEXAS REGIONAL WEATHER ROUNDUP
NATIONAL WEATHER SERVICE SAN ANGELO TX
100 AM CST TUE JAN 24 2017

NOTE: "FAIR" INDICATES FEW OR NO CLOUDS BELOW 12,000 FEET WITH NO
SIGNIFICANT WEATHER AND/OR OBSTRUCTIONS TO VISIBILITY.

TXZ049-054-064>066-071>073-076>078-098-099-113-114-127-128-139-140-
154-155-168>170-240800
...LOCATIONS ACROSS WEST CENTRAL TEXAS...

CITY           SKY/WX    TMP DP  RH WIND       PRES   REMARKS
SAN ANGELO     CLEAR     60  31  33 S10       29.70F
ABILENE        CLOUDY    60  33  36 S16G23    29.71F
DYESS AFB      CLEAR     55  38  53 SW14      29.69F
JUNCTION       PTCLDY    53  33  46 E3        29.76F
SWEETWATER     CLEAR     57  34  42 S13       29.71F
BROWNWOOD      NOT AVBL
COLEMAN        CLOUDY    55  34  44 S10       29.74
SONORA         CLEAR     55  32  41 S5        29.79F
OZONA          FAIR      55  32  41 MISG      29.76F
BRADY          NOT AVBL
$$

TEXAS PANHANDLE/OKLAHOMA PANHANDLE

CITY           SKY/WX    TMP DP  RH WIND       PRES   REMARKS
AMARILLO       CLOUDY    45  32  60 S12       29.61F WCI  39
BORGER         CLEAR     53  32  44 SW13      29.57F
CANADIAN       CLEAR     54  34  47 SW9       29.55F
DALHART        CLOUDY    36  27  69 S9        29.56F WCI  29
DUMAS          CLOUDY    39  27  60 SW9       29.56F WCI  33
GUYMON         NOT AVBL
HEREFORD       CLOUDY    47  32  55 SW9G16    29.61F
PAMPA          SUNNY     55  32  42 SW15      29.59F
PERRYTON       CLEAR     50  36  58 SW18      29.54F
$$

SOUTHERN PANHANDLE/SOUTH PLAINS/ROLLING PLAINS

CITY           SKY/WX    TMP DP  RH WIND       PRES   REMARKS
LUBBOCK        CLEAR     54  29  38 S15       29.65F
SNYDER         CLEAR     50  36  58 S8        29.70F
CHILDRESS      CLEAR     54  30  40 SW12      29.63F
SEMINOLE       SUNNY     54  32  43 S16G23    29.68F
$$

PERMIAN BASIN

CITY           SKY/WX    TMP DP  RH WIND       PRES   REMARKS
MIDLAND        CLEAR     56  34  43 S12       29.70F
ODESSA         CLEAR     57  32  38 S12       29.70F
WINK           CLEAR     49  34  56 SE8       29.68F
$$

FAR WEST/SOUTHWEST MOUNTAINS/TRANS PECOS

CITY           SKY/WX    TMP DP  RH WIND       PRES   REMARKS
ALPINE         CLOUDY    60  27  28 SW10      29.85F
DRYDEN           N/A     50  33  52 CALM      29.73F
EL PASO        CLEAR     60  26  27 SW17G35   29.70F
FORT STOCKTON  CLEAR     60  32  34 S14       29.71F
GUADALUPE PASS CLEAR     51  25  36 SW31G38   29.73F
MARFA          CLOUDY    40  30  67 NE5       29.84F WCI  37
PECOS          MOSUNNY   45  34  66 W3        29.69F
$$

DALLAS/FORT WORTH METROPLEX

CITY           SKY/WX    TMP DP  RH WIND       PRES   REMARKS
DFW AIRPORT    CLOUDY    50  39  66 SE7       29.71F
FTW MEACHAM    PTCLDY    55  37  50 SE8       29.71F
DAL-EXECUTIVE  CLEAR     53  39  59 S9        29.72F
GRAND PRAIRIE  PTCLDY    55  37  52 S8        29.75F
ADDISON        PTCLDY    56  40  54 SE7       29.74F
MESQUITE       SUNNY     52  37  58 S10       29.76F
LANCASTER      SUNNY     46  38  73 CALM      29.76F
$$

NORTH CENTRAL TEXAS

CITY           SKY/WX    TMP DP  RH WIND       PRES   REMARKS
SHRMAN/DENISON SUNNY     55  38  53 S17G23    29.72F
GAINESVILLE    CLEAR     47  38  70 SE9       29.72F
BRIDGEPORT     MOSUNNY   42  38  83 CALM      29.71F
DENTON         PTCLDY    49  39  68 SE8       29.71F
WAXAHACHIE     SUNNY     48  40  74 SE7       29.76F
GRANBURY       MOSUNNY   55  40  56 E3        29.74S
$$

WESTERN NORTH TEXAS

CITY           SKY/WX    TMP DP  RH WIND       PRES   REMARKS
WICHITA FALLS  HAZE      47  37  68 S12       29.64F VSB 1/2
VERNON         SUNNY     47  36  63 SW10      29.64F
BRECKENRIDGE   MOSUNNY   61  35  37 S15       29.69F
COMANCHE       CLEAR     57  36  45 S12       29.74F
$$

CENTRAL AND SOUTH CENTRAL TEXAS

CITY           SKY/WX    TMP DP  RH WIND       PRES   REMARKS
AUSTIN/BERGSTM CLEAR     51  37  58 S6        29.81F
WACO           PTCLDY    48  39  71 S8        29.77F
HILLSBORO      SUNNY     55  40  57 SE8       29.75F
TEMPLE         PTCLDY    52  38  58 S14       29.79F
KILLEEN-GRAY   PTCLDY    50  36  60 S9        29.77F
FORT HOOD      PTCLDY    54  35  49 S3        29.75F
GEORGETOWN     PTCLDY    52  36  54 S7        29.80F
LAGO VISTA     FAIR      58  33  38 S7        29.81F
SAN MARCOS     CLEAR     52  36  54 SW3       29.83F
NEW BRAUNFELS  CLEAR     51  37  58 SW5       29.81F
RANDOLPH AFB   CLEAR     51  38  60 S6        29.82F
SAN ANTONIO    CLEAR     51  38  60 SE5       29.82F
STINSON        CLEAR     51  39  63 E3        29.80F
PLEASANTON     NOT AVBL
LA GRANGE      CLEAR     52  46  79 S3        29.82F
GIDDINGS       SUNNY     54  42  65 S8        29.83F
$$

EAST TEXAS

CITY           SKY/WX    TMP DP  RH WIND       PRES   REMARKS
PARIS          CLEAR     45  32  61 SE12      29.79F WCI  39
CLARKSVILLE    NOT AVBL
TYLER          CLEAR     51  36  56 S9        29.80F
LONGVIEW       CLEAR     44  39  82 CALM      29.81F
PALESTINE      MOSUNNY   54  39  57 SE5       29.83F
NACOGDOCHES    PTCLDY    41  37  87 CALM      29.84S
$$

TEXAS HILL COUNTRY AND EDWARDS PLATEAU

CITY           SKY/WX    TMP DP  RH WIND       PRES   REMARKS
LLANO          SUNNY     46  37  71 CALM      29.80F
HORSESHOE BAY  FAIR      58  32  37 CALM      29.79F
KERRVILLE      CLEAR     41  37  84 CALM      29.81F
FREDERICKSBRG  CLEAR     42  34  74 CALM      29.80F
ROCKSPRINGS    CLOUDY    59  32  36 S14       29.81F
HONDO          CLEAR     46  35  65 E6        29.82F
UVALDE         SUNNY     52  33  49 E7        29.79F
DEL RIO        CLOUDY    59  33  37 E10       29.73F
$$

SOUTHEAST TEXAS

CITY           SKY/WX    TMP DP  RH WIND       PRES   REMARKS
COLLEGE STN    CLEAR     52  44  74 S7        29.82F
CALDWELL       NOT AVBL
CROCKETT       MOSUNNY   50  37  62 CALM      29.86F
BRENHAM        CLEAR     55  49  79 S7        29.84F
HUNTSVILLE     CLEAR     56  41  57 S9        29.83F
CONROE         CLEAR     44  41  89 CALM      29.85F
HOUSTON BUSH   CLEAR     56  43  61 S5        29.85F
HOUSTON HOBBY  PTCLDY    55  50  83 S9        29.85F
PERLAND        CLEAR     56  49  77 S3        29.87F
WHARTON        SUNNY     52  50  93 SE5       29.87F
$$

THE UPPER TEXAS COAST

CITY           SKY/WX    TMP DP  RH WIND       PRES   REMARKS
ORANGE         SUNNY     48  46  91 CALM      29.89F
PORT ARTHUR    CLEAR     53  51  93 S5        29.87F
GALVESTON      CLEAR     63  58  83 S9        29.88F
ANGLETON       CLEAR     53  51  93 S6        29.87F
BAY CITY       SUNNY     56  56  97 SE5       29.87F
$$

TEXAS COASTAL BEND, RIO GRANDE PLAINS DEEP SOUTH TEXAS

CITY           SKY/WX    TMP DP  RH WIND       PRES   REMARKS
VICTORIA       CLEAR     52  50  93 S6        29.86F
BEEVILLE       FAIR      55  50  82 S9        29.84F
ROCKPORT         N/A     64  57  78 S8        29.85F
PORT ARANSAS   SUNNY     62  56  83 S13       29.85F
PORT LAVACA    SUNNY     56  55  99 CALM      29.86F
CORPUS CHRISTI CLEAR     60  52  74 S14       29.85F
KINGSVILLE NAS CLEAR     58  52  80 S13       29.84F
COTULLA        CLEAR     57  33  40 SE9       29.78F
LAREDO         CLEAR     62  35  36 SE13      29.79F
BROWNSVILLE    CLEAR     61  58  90 S9        29.88F
PORT ISABEL    CLEAR     62  58  86 S9        29.86F
HEBBRONVILLE   SUNNY     51  34  53 S6        29.83F
MCALLEN        CLEAR     62  54  74 SE9       29.86F
WESLACO        CLEAR     61  56  84 S9        29.85F
FALFURRIAS     SUNNY     54  43  66 SE5       29.84F
EDINBURG       SUNNY     64  56  75 S7        29.85F
$$



USA.gov is the U.S. government's official web portal to all federal, state and local government web resources and services.